RH
100 100 100 101 101 101 101 102 102 102 102 102 101 101 101 100 99 98 97 96 91 85 80 76 72 62 49 37 29 25 25 25 26 27 28 27 28 28 27 26 26 25
102 102 102 102 102 102 103 103 103 102 101 101 100 101 101 102 103 102 99 94 88 83 76 66 53 40 32 28 28 29 30 29 29 28 28 27 26 25 24 24 24 23
99 101 102 103 103 103 104 103 102 101 101 102 103 103 103 103 103 100 95 88 80 69 55 42 33 29 29 30 31 30 29 28 27 26 25 24 23 22 21 22 21 20
100 100 101 102 102 103 103 103 102 102 103 103 103 103 103 103 101 94 84 71 56 42 33 29 28 29 29 29 28 26 25 23 23 23 22 21 21 20 20 20 19 18
101 101 102 102 102 102 102 101 102 103 104 104 104 103 99 93 82 68 55 41 32 27 27 28 29 28 27 26 24 22 20 19 18 19 18 18 19 19 19 19 18 18
101 101 102 103 103 103 103 103 103 103 101 96 89 80 68 55 44 34 28 25 24 25 26 27 27 26 25 22 20 18 16 16 16 16 16 17 18 18 18 18 17 17
95 94 95 95 95 96 94 90 85 78 71 61 50 40 32 27 24 23 23 23 24 24 24 25 24 23 22 20 19 17 16 16 16 16 16 16 16 17 17 17 17 17
65 61 58 57 57 57 56 52 46 40 35 30 25 23 22 22 23 23 23 22 22 22 21 22 22 21 21 19 17 17 16 16 16 16 16 16 16 16 16 16 16 16
34 30 28 26 26 26 26 25 24 23 23 22 22 22 22 23 22 21 21 20 19 19 19 20 20 20 20 19 18 18 18 18 17 17 17 17 17 16 17 17 16 16
27 25 24 22 21 21 21 20 20 20 20 20 20 20 20 20 19 19 18 18 18 18 19 19 20 20 19 19 19 19 19 19 19 19 19 19 19 18 18 18 18 18
31 31 30 28 27 25 24 23 22 22 21 20 20 19 19 19 18 18 18 18 18 18 19 20 20 20 20 20 20 20 20 21 21 21 21 21 21 21 21 21 21 22
46 45 43 41 37 34 31 28 26 24 23 21 20 19 19 19 18 18 18 18 18 19 19 20 20 20 20 20 20 20 20 21 21 22 22 22 23 23 24 25 26 27
65 59 53 47 41 35 32 28 25 23 22 21 20 19 19 19 19 19 19 19 20 20 20 20 20 20 20 20 20 20 21 21 22 23 25 26 28 29 31 32 33 33
56 50 44 39 34 29 26 24 22 21 20 20 20 19 20 20 21 21 22 22 22 22 21 21 21 20 20 20 20 21 23 24 27 30 32 35 37 39 40 40 40 39
33 31 29 27 25 24 23 22 21 21 21 21 21 22 22 23 24 24 24 24 24 23 22 22 22 22 22 24 25 28 31 34 37 40 43 46 48 49 49 48 47 47
24 24 24 24 24 24 24 24 24 24 24 25 25 26 26 26 27 26 26 26 26 25 25 26 27 28 30 33 35 38 42 44 47 50 52 54 55 55 56 55 55 54
28 27 27 28 28 28 28 29 29 29 29 30 30 30 30 29 29 28 28 28 29 30 32 34 37 39 41 44 46 49 52 54 56 58 60 60 61 61 62 61 61 60
38 37 36 36 35 35 35 34 34 34 34 34 33 33 32 32 32 32 33 35 36 38 41 44 47 50 52 54 56 59 61 63 64 65 66 66 66 66 66 66 65 64
49 48 47 46 45 44 43 43 43 43 43 42 42 42 42 42 43 44 44 45 47 48 50 53 57 61 64 66 68 70 70 70 70 70 70 70 70 69 69 67 66 65
60 59 59 57 56 54 54 53 53 54 54 53 53 53 53 54 55 55 56 57 58 59 61 65 69 72 74 74 75 75 75 75 75 74 73 72 71 69 68 66 65 66
75 73 71 70 68 66 65 64 63 63 64 63 63 63 63 65 67 70 72 73 74 75 75 77 79 80 80 80 80 80 80 79 78 76 74 72 70 69 69 70 73 75
94 92 90 88 86 84 82 81 80 79 79 79 79 80 80 81 82 84 86 87 86 86 85 84 85 86 85 84 83 82 82 80 79 78 78 77 77 79 80 82 84 86
101 101 100 100 99 99 98 97 97 96 96 95 95 95 95 94 93 93 92 92 92 91 91 90 90 90 90 89 88 89 89 89 90 90 90 90 90 90 90 88 87 85
100 100 100 100 100 100 100 100 101 101 100 100 99 99 98 98 98 97 96 95 95 95 96 96 96 97 99 99 100 100 100 99 98 97 95 94 93 91 89 87 84 83
101 101 100 100 100 101 101 102 102 102 102 102 102 101 101 101 101 101 101 101 101 101 101 101 101 101 102 103 102 101 100 97 95 93 92 92 92 92 91 90 90 90
102 102 101 101 101 101 101 102 102 101 101 102 102 101 101 101 101 101 101 101 101 102 101 99 98 98 99 101 102 102 102 100 97 95 95 95 96 97 97 97 98 99
Wind_Speed
45 46 46 46 47 47 47 47 47 47 47 47 47 47 47 48 48 48 48 48 49 49 50 50 50 50 50 50 50 50 50 50 50 51 51 51 51 52 52 53 53 54
41 41 42 42 42 42 42 43 43 43 44 44 45 46 46 47 48 48 49 49 50 50 50 50 49 49 49 50 50 50 50 51 51 52 53 53 53 53 54 54 55 55
40 40 40 41 41 41 42 42 43 43 44 45 45 46 47 48 49 49 50 50 50 50 49 49 49 49 50 51 51 52 52 53 54 55 56 55 56 56 56 57 57 57
42 42 42 42 43 43 44 44 45 45 45 46 46 47 48 48 49 49 50 50 49 49 50 50 51 51 52 53 54 54 55 55 56 58 58 58 59 59 59 59 59 59
43 44 44 45 45 45 46 46 46 46 47 47 47 48 48 49 49 49 49 50 50 50 51 52 53 54 55 56 56 56 57 58 59 60 60 60 61 61 61 62 61 61
43 44 45 45 46 46 46 46 47 47 48 48 48 49 49 49 49 50 50 51 52 53 54 55 56 57 58 58 59 59 59 59 60 61 61 61 62 63 63 63 63 63
44 44 45 45 46 47 47 47 48 48 49 49 49 49 50 50 51 51 52 53 54 55 56 57 58 59 60 60 60 61 61 62 62 63 63 63 64 64 65 65 65 65
45 45 46 46 47 48 48 49 49 50 50 50 50 51 52 52 53 54 55 56 57 58 58 59 60 60 61 61 62 62 63 64 64 64 64 65 65 66 66 67 67 67
47 47 48 48 49 49 50 50 51 51 52 52 53 54 55 56 56 57 58 59 59 60 60 61 61 62 62 63 63 64 64 65 65 66 66 67 67 67 68 69 69 69
49 49 50 50 51 51 52 52 53 54 54 55 56 57 58 59 60 60 61 61 61 62 62 62 63 63 64 64 64 65 65 65 66 67 67 68 68 69 70 71 71 71
52 52 52 53 53 54 54 55 56 57 57 58 59 60 60 61 62 62 63 63 63 64 64 64 65 65 65 66 66 66 66 66 67 68 68 69 69 70 71 72 72 73
55 56 56 56 57 58 58 58 59 59 60 61 61 62 63 63 64 65 65 66 66 66 66 67 67 67 68 68 68 68 68 68 69 69 70 70 71 71 72 73 74 74
58 59 59 60 60 61 61 62 62 62 63 63 64 64 65 65 66 67 67 68 68 68 69 69 69 70 70 70 70 70 70 71 71 72 72 72 73 73 74 75 75 75
60 61 61 62 62 63 64 64 64 65 65 65 66 66 67 67 67 68 68 69 70 70 71 71 72 72 72 72 73 73 73 73 74 74 74 75 75 75 75 75 75 75
63 63 63 64 64 64 65 66 66 66 66 67 67 67 68 68 69 69 70 71 71 72 73 73 73 74 74 74 75 75 76 76 76 77 77 77 77 76 76 76 76 76
64 64 64 64 65 65 65 66 66 67 67 68 68 69 69 70 71 71 72 73 73 73 74 74 75 75 76 76 77 77 78 78 79 79 79 78 78 78 78 78 78 79
63 63 64 64 64 65 65 66 67 67 68 69 70 71 71 72 73 74 74 74 74 75 75 76 76 77 78 79 79 80 80 80 80 80 80 80 80 80 80 80 81 80
63 64 64 65 66 66 67 68 69 70 71 71 72 73 74 75 75 76 76 77 77 77 78 78 79 80 80 81 81 81 82 82 82 82 82 82 82 82 82 82 82 82
67 67 68 69 69 70 70 71 72 72 73 74 75 75 76 76 77 78 78 79 79 80 80 81 81 82 82 82 82 83 83 84 84 85 85 85 85 84 84 84 84 84
70 70 71 72 72 73 73 74 74 75 76 77 77 77 78 78 79 80 81 81 82 82 83 83 83 84 84 85 85 86 87 88 88 88 87 87 86 86 86 86 85 85
72 72 73 74 74 75 76 76 77 78 79 80 80 81 81 82 82 83 83 84 84 84 85 85 85 87 88 88 89 90 90 90 90 89 89 88 87 87 87 87 86 86
75 76 77 77 78 79 80 80 81 82 83 84 84 84 85 85 85 85 85 86 86 87 87 88 89 90 91 91 91 91 92 91 91 90 90 89 88 88 88 88 87 87
79 79 80 81 81 82 83 83 84 85 85 86 86 86 87 87 88 88 89 89 89 90 91 91 91 92 93 92 92 92 92 92 91 91 90 90 89 88 88 88 87 87
82 83 83 84 84 85 86 86 87 87 88 88 89 89 90 90 91 91 92 92 93 92 93 92 92 92 92 93 92 93 93 92 91 91 90 89 88 88 88 87 87 86
85 86 86 87 88 88 89 89 90 90 91 91 92 92 92 92 93 93 93 93 93 93 93 93 92 92 92 92 92 92 92 92 91 91 90 89 88 87 87 87 86 86
86 87 87 88 88 89 89 90 90 91 91 91 92 92 92 92 92 92 92 92 92 92 92 92 92 91 91 92 92 92 92 92 91 91 90 89 89 88 88 88 88 88
Wind_Direction
256 256 255 255 255 255 255 255 256 256 257 257 257 257 257 256 256 257 257 257 257 258 258 258 258 258 259 260 261 262 263 264 265 266 266 267 267 268 269 269 270 271
259 258 257 257 256 256 256 256 256 256 256 256 256 256 256 256 257 257 257 257 257 257 257 257 257 257 258 260 261 262 264 265 266 267 267 268 268 269 269 270 270 271
263 262 261 260 258 257 257 256 256 255 255 255 255 255 256 256 256 257 257 257 257 257 257 257 258 258 259 261 262 263 264 265 266 267 267 268 269 269 269 270 270 271
262 262 261 260 259 258 258 257 257 257 256 256 255 255 255 255 256 256 257 257 257 257 258 259 259 260 261 262 263 264 264 265 266 267 267 268 269 269 270 270 271 272
260 260 259 259 258 258 258 258 258 257 256 256 255 255 255 255 255 256 256 257 257 258 259 260 261 262 263 263 264 265 265 266 266 267 268 268 269 269 270 271 272 272
258 258 258 258 257 257 257 256 256 256 255 255 255 255 255 255 255 256 257 257 258 259 260 261 262 263 263 264 265 266 266 267 267 267 268 268 268 269 270 271 272 272
258 258 258 257 257 256 256 255 255 255 255 255 254 254 255 255 256 256 257 258 259 260 261 261 262 263 264 264 265 266 267 267 267 268 268 268 268 269 270 271 271 272
258 258 258 258 258 257 256 256 255 255 255 255 255 255 255 256 256 257 258 259 260 260 261 261 262 263 264 265 266 266 267 268 268 268 269 269 269 270 271 271 272 272
258 259 259 259 259 258 258 257 257 256 256 255 255 256 256 257 257 258 259 260 260 261 261 261 262 262 263 265 265 266 267 267 268 268 269 270 270 271 271 272 272 273
259 259 259 259 259 258 258 258 258 258 258 258 258 258 258 259 259 260 260 261 261 261 261 261 262 263 264 265 265 266 266 266 267 267 268 269 270 271 271 272 273 273
260 260 261 261 260 260 260 260 260 260 261 261 261 261 261 261 262 262 262 262 262 262 262 262 262 263 264 265 265 265 265 265 266 266 267 268 269 269 270 271 272 273
260 260 261 261 262 262 262 262 262 262 262 262 262 262 262 262 263 263 263 263 263 262 262 263 263 264 264 265 265 265 265 265 265 266 267 267 268 269 270 270 271 272
260 260 260 261 261 262 262 262 262 263 263 263 263 263 263 262 262 262 262 262 262 263 263 263 264 264 265 265 265 265 266 266 266 267 267 268 268 269 269 270 270 271
262 262 261 261 262 262 262 262 263 263 263 263 263 262 262 262 262 262 262 262 263 263 264 264 265 265 265 266 266 266 267 267 267 268 268 269 269 269 270 270 270 270
264 263 263 263 263 263 263 263 263 263 263 263 262 262 261 261 261 261 262 263 263 264 265 265 265 266 266 267 267 267 268 268 269 269 270 270 270 270 270 270 270 270
264 264 264 264 263 263 263 263 262 262 262 262 261 261 261 261 261 262 262 263 264 265 265 266 266 267 267 267 268 269 269 270 270 270 271 271 271 271 271 271 271 271
264 264 264 264 264 263 263 262 262 262 262 262 262 262 262 262 263 264 264 265 265 266 266 267 267 268 268 269 269 270 270 270 271 271 271 271 272 272 272 272 272 272
265 265 265 265 264 264 264 264 264 263 263 263 263 264 264 265 265 266 266 266 267 267 267 268 269 269 269 270 270 271 271 271 271 271 272 272 272 273 273 273 273 273
267 266 266 266 266 266 266 265 265 265 265 265 265 266 266 266 267 267 268 268 269 269 270 270 270 271 271 271 271 271 271 272 272 272 272 273 273 273 273 273 273 273
267 267 267 267 267 267 267 267 267 267 267 267 267 267 268 268 269 269 270 270 271 271 271 271 271 271 271 272 272 272 273 273 273 273 273 273 273 273 273 273 273 273
268 267 267 267 267 267 267 267 267 267 268 268 268 269 269 269 270 270 270 270 271 271 271 271 271 272 272 272 273 273 273 273 273 273 273 273 273 273 273 273 273 273
268 268 268 268 268 268 268 268 268 268 269 269 269 270 270 270 270 270 270 270 270 271 271 271 272 272 273 273 273 273 273 273 273 273 274 274 274 273 273 273 273 273
269 269 268 268 268 268 268 269 269 269 269 269 270 270 270 270 270 271 271 271 271 272 272 272 272 273 273 273 273 273 273 273 273 273 273 274 274 273 273 273 273 273
269 269 269 269 269 269 269 269 269 270 270 270 270 270 270 271 271 271 272 272 272 272 272 272 272 273 273 273 273 273 273 273 273 273 273 273 273 273 273 273 273 273
269 269 269 269 269 270 270 270 270 270 270 271 271 271 271 271 271 271 271 272 272 272 272 272 272 272 272 273 273 273 273 273 273 273 273 273 273 272 272 272 272 272
270 270 270 270 269 269 270 270 270 270 270 270 270 271 271 271 271 271 271 271 272 272 272 272 272 272 272 273 273 273 273 273 273 273 272 272 272 272 272 272 272 272